Location: Newark
(34.0131°N, 4.3314°W)
Time: 15:21:54
(UTC+00:00)

A-11 Canister half - Pass Details

Date: 24 October 2019
Orbit: 1514 x 1686 km, 47.2° (Epoch: 11 November)

Event Time Altitude Azimuth Distance (km) Brightness Sun altitude
Rises 02:11:38 0° 258° (WSW) 4,917 - -52.9°
Reaches altitude 10° 02:14:59 10° 264° (W) 3,916 - -52.3°
Maximum altitude 02:24:38 50° 338° (NNW) 2,000 - -50.5°
Exits shadow 02:28:46 34° 31° (NNE) 2,449 10.2 -49.7°
Drops below altitude 10° 02:34:00 10° 52° (NE) 3,798 11.5 -48.7°
Sets 02:37:14 0° 58° (ENE) 4,760 12.3 -48.1°
